QPF
0.00 0.00 0.00 0.00 0.00 0.00 0.00 0.00 0.00 0.00 0.02 0.03 0.03 0.02 0.02 0.02 0.02 0.03 0.05 0.05 0.05 0.04 0.03 0.02 0.02 0.01 0.01 0.00 0.00 0.00 0.00 0.00 0.00 0.00 0.00 0.00 0.00 0.00 0.00 0.00 0.00 0.00 0.00
0.00 0.00 0.00 0.00 0.00 0.00 0.00 0.00 0.00 0.00 0.00 0.00 0.01 0.01 0.02 0.02 0.03 0.06 0.07 0.07 0.07 0.07 0.05 0.03 0.03 0.02 0.01 0.00 0.01 0.01 0.00 0.00 0.00 0.00 0.00 0.00 0.00 0.00 0.00 0.00 0.00 0.00 0.00
0.00 0.00 0.00 0.00 0.00 0.00 0.00 0.00 0.00 0.00 0.00 0.01 0.02 0.04 0.05 0.05 0.04 0.03 0.03 0.04 0.07 0.08 0.07 0.07 0.05 0.04 0.02 0.02 0.02 0.02 0.01 0.01 0.01 0.01 0.01 0.01 0.00 0.00 0.00 0.00 0.00 0.00 0.00
0.00 0.00 0.00 0.00 0.00 0.00 0.00 0.00 0.00 0.00 0.00 0.01 0.01 0.02 0.02 0.02 0.02 0.02 0.03 0.06 0.08 0.09 0.09 0.10 0.08 0.07 0.05 0.05 0.04 0.04 0.04 0.03 0.02 0.01 0.01 0.01 0.01 0.01 0.01 0.01 0.01 0.00 0.00
0.00 0.00 0.00 0.00 0.00 0.00 0.00 0.00 0.00 0.00 0.00 0.00 0.00 0.01 0.01 0.01 0.02 0.03 0.04 0.06 0.08 0.09 0.10 0.11 0.12 0.11 0.10 0.10 0.10 0.08 0.06 0.04 0.03 0.03 0.02 0.03 0.03 0.03 0.03 0.02 0.01 0.01 0.00
0.00 0.00 0.00 0.00 0.00 0.00 0.00 0.00 0.00 0.00 0.00 0.00 0.00 0.00 0.01 0.01 0.02 0.03 0.04 0.05 0.08 0.09 0.09 0.12 0.13 0.15 0.15 0.14 0.12 0.11 0.09 0.06 0.05 0.04 0.03 0.03 0.02 0.02 0.02 0.01 0.01 0.00 0.00
0.00 0.00 0.00 0.00 0.00 0.00 0.00 0.00 0.00 0.00 0.00 0.00 0.00 0.00 0.00 0.01 0.01 0.02 0.03 0.04 0.05 0.05 0.07 0.10 0.13 0.16 0.18 0.18 0.15 0.12 0.10 0.08 0.07 0.06 0.04 0.02 0.02 0.01 0.01 0.01 0.01 0.00 0.00
0.00 0.00 0.00 0.00 0.00 0.00 0.00 0.00 0.00 0.00 0.00 0.00 0.00 0.00 0.00 0.01 0.01 0.02 0.02 0.03 0.04 0.07 0.10 0.12 0.14 0.16 0.17 0.15 0.13 0.10 0.09 0.07 0.06 0.04 0.03 0.03 0.02 0.02 0.01 0.01 0.01 0.01 0.00
0.00 0.00 0.00 0.00 0.00 0.00 0.00 0.00 0.00 0.00 0.00 0.00 0.00 0.00 0.00 0.01 0.01 0.01 0.02 0.03 0.04 0.06 0.08 0.09 0.11 0.11 0.12 0.11 0.10 0.09 0.07 0.06 0.05 0.05 0.04 0.03 0.02 0.01 0.01 0.01 0.01 0.00 0.00
0.00 0.00 0.00 0.00 0.00 0.00 0.00 0.00 0.00 0.00 0.00 0.00 0.00 0.00 0.00 0.01 0.01 0.01 0.01 0.02 0.03 0.04 0.05 0.06 0.07 0.08 0.08 0.08 0.08 0.07 0.06 0.06 0.05 0.05 0.04 0.03 0.02 0.01 0.01 0.00 0.00 0.00 0.00
0.00 0.00 0.00 0.00 0.00 0.00 0.00 0.00 0.00 0.00 0.00 0.00 0.00 0.00 0.00 0.01 0.01 0.01 0.02 0.02 0.03 0.03 0.04 0.04 0.05 0.05 0.05 0.05 0.05 0.05 0.05 0.05 0.05 0.04 0.03 0.02 0.01 0.01 0.01 0.01 0.00 0.00 0.00
0.00 0.00 0.00 0.00 0.00 0.00 0.00 0.00 0.00 0.00 0.00 0.00 0.00 0.00 0.00 0.00 0.01 0.01 0.02 0.02 0.03 0.03 0.03 0.03 0.03 0.03 0.04 0.03 0.04 0.04 0.05 0.05 0.04 0.04 0.03 0.03 0.02 0.02 0.02 0.01 0.01 0.01 0.00
0.00 0.00 0.00 0.00 0.00 0.00 0.00 0.00 0.00 0.00 0.00 0.00 0.01 0.01 0.01 0.01 0.01 0.02 0.02 0.02 0.02 0.02 0.02 0.01 0.02 0.02 0.02 0.02 0.03 0.03 0.04 0.04 0.04 0.05 0.05 0.05 0.05 0.04 0.03 0.02 0.01 0.01 0.00
0.00 0.00 0.00 0.00 0.00 0.00 0.00 0.00 0.00 0.01 0.01 0.01 0.01 0.01 0.01 0.02 0.02 0.02 0.02 0.02 0.02 0.02 0.02 0.02 0.02 0.02 0.02 0.02 0.03 0.04 0.05 0.06 0.07 0.07 0.08 0.07 0.06 0.04 0.02 0.01 0.01 0.00 0.00
0.00 0.00 0.00 0.00 0.00 0.00 0.00 0.01 0.01 0.01 0.01 0.02 0.02 0.02 0.02 0.03 0.03 0.03 0.03 0.03 0.02 0.02 0.02 0.02 0.02 0.03 0.04 0.05 0.07 0.08 0.09 0.10 0.09 0.08 0.07 0.05 0.03 0.02 0.01 0.00 0.00 0.00 0.00
0.00 0.00 0.00 0.00 0.00 0.00 0.01 0.01 0.01 0.01 0.02 0.03 0.03 0.03 0.04 0.05 0.04 0.05 0.04 0.04 0.04 0.04 0.04 0.04 0.04 0.05 0.07 0.10 0.10 0.09 0.08 0.08 0.07 0.05 0.03 0.02 0.01 0.01 0.00 0.00 0.00 0.00 0.00
0.00 0.00 0.00 0.00 0.00 0.01 0.01 0.02 0.03 0.03 0.04 0.04 0.05 0.06 0.08 0.09 0.07 0.06 0.06 0.06 0.06 0.06 0.07 0.08 0.09 0.11 0.13 0.15 0.11 0.09 0.07 0.06 0.05 0.04 0.02 0.01 0.01 0.00 0.00 0.00 0.00 0.00 0.00
0.00 0.00 0.00 0.00 0.00 0.00 0.00 0.01 0.02 0.03 0.05 0.08 0.10 0.10 0.10 0.12 0.12 0.12 0.12 0.12 0.12 0.13 0.14 0.15 0.15 0.15 0.15 0.13 0.09 0.07 0.05 0.04 0.02 0.01 0.01 0.00 0.00 0.00 0.00 0.00 0.00 0.00 0.00
0.00 0.00 0.00 0.00 0.00 0.00 0.01 0.01 0.01 0.02 0.04 0.08 0.12 0.11 0.13 0.16 0.18 0.20 0.21 0.20 0.18 0.17 0.18 0.17 0.15 0.13 0.10 0.07 0.05 0.03 0.02 0.01 0.01 0.00 0.00 0.00 0.00 0.00 0.00 0.00 0.00 0.00 0.00
0.00 0.00 0.00 0.00 0.00 0.00 0.01 0.01 0.02 0.03 0.05 0.07 0.09 0.11 0.14 0.17 0.19 0.19 0.20 0.20 0.19 0.17 0.15 0.12 0.09 0.06 0.04 0.03 0.02 0.01 0.01 0.00 0.00 0.00 0.00 0.00 0.00 0.00 0.00 0.00 0.00 0.00 0.00
0.00 0.00 0.00 0.00 0.00 0.00 0.01 0.01 0.03 0.04 0.04 0.06 0.09 0.12 0.14 0.16 0.17 0.17 0.17 0.17 0.16 0.12 0.09 0.06 0.03 0.02 0.01 0.01 0.00 0.00 0.00 0.00 0.00 0.00 0.00 0.00 0.00 0.00 0.01 0.01 0.00 0.00 0.00
0.00 0.00 0.00 0.01 0.01 0.01 0.01 0.02 0.03 0.04 0.04 0.06 0.07 0.09 0.10 0.10 0.09 0.09 0.09 0.08 0.07 0.05 0.03 0.02 0.01 0.01 0.00 0.00 0.00 0.00 0.00 0.00 0.00 0.00 0.00 0.00 0.00 0.00 0.00 0.00 0.00 0.00 0.00
0.00 0.00 0.00 0.01 0.01 0.02 0.02 0.03 0.03 0.04 0.04 0.05 0.06 0.06 0.06 0.06 0.05 0.04 0.03 0.02 0.02 0.02 0.01 0.01 0.00 0.00 0.00 0.00 0.00 0.00 0.00 0.00 0.00 0.00 0.00 0.00 0.00 0.00 0.00 0.00 0.00 0.00 0.00
0.00 0.00 0.00 0.00 0.01 0.01 0.01 0.02 0.02 0.03 0.03 0.03 0.03 0.03 0.02 0.02 0.02 0.01 0.01 0.00 0.00 0.00 0.00 0.00 0.00 0.00 0.00 0.00 0.00 0.00 0.00 0.00 0.00 0.00 0.00 0.00 0.00 0.00 0.00 0.00 0.00 0.00 0.00
0.00 0.00 0.00 0.00 0.00 0.00 0.00 0.00 0.01 0.01 0.01 0.01 0.01 0.01 0.01 0.00 0.00 0.00 0.00 0.00 0.00 0.00 0.00 0.00 0.00 0.00 0.00 0.00 0.00 0.00 0.00 0.00 0.00 0.00 0.00 0.00 0.00 0.00 0.00 0.00 0.00 0.00 0.00
0.00 0.00 0.00 0.00 0.00 0.00 0.00 0.00 0.00 0.00 0.00 0.00 0.00 0.00 0.00 0.00 0.00 0.00 0.00 0.00 0.00 0.00 0.00 0.00 0.00 0.00 0.00 0.00 0.00 0.00 0.00 0.00 0.00 0.00 0.00 0.00 0.00 0.00 0.00 0.00 0.00 0.00 0.00
MSLP
1011.17 1011.09 1010.99 1010.88 1010.75 1010.63 1010.56 1010.56 1010.63 1010.80 1011.03 1011.32 1011.64 1011.97 1012.30 1012.62 1012.93 1013.25 1013.59 1013.97 1014.40 1014.88 1015.42 1016.01 1016.64 1017.31 1017.99 1018.68 1019.35 1019.99 1020.59 1021.12 1021.58 1021.96 1022.26 1022.50 1022.68 1022.82 1022.95 1023.08 1023.22 1023.37 1023.53
1010.81 1010.73 1010.62 1010.48 1010.32 1010.17 1010.06 1010.02 1010.07 1010.21 1010.44 1010.72 1011.03 1011.34 1011.64 1011.92 1012.19 1012.46 1012.77 1013.12 1013.54 1014.03 1014.60 1015.23 1015.91 1016.61 1017.32 1018.02 1018.70 1019.34 1019.94 1020.48 1020.97 1021.39 1021.76 1022.07 1022.34 1022.57 1022.78 1022.99 1023.19 1023.40 1023.60
1010.56 1010.46 1010.34 1010.18 1010.00 1009.81 1009.67 1009.60 1009.62 1009.74 1009.94 1010.21 1010.49 1010.77 1011.03 1011.26 1011.48 1011.70 1011.96 1012.28 1012.68 1013.17 1013.75 1014.39 1015.09 1015.81 1016.52 1017.22 1017.90 1018.54 1019.14 1019.70 1020.23 1020.71 1021.15 1021.56 1021.92 1022.25 1022.55 1022.84 1023.12 1023.38 1023.63
1010.45 1010.35 1010.22 1010.04 1009.83 1009.62 1009.44 1009.32 1009.31 1009.39 1009.56 1009.78 1010.02 1010.26 1010.47 1010.64 1010.80 1010.97 1011.19 1011.48 1011.86 1012.34 1012.92 1013.57 1014.27 1014.98 1015.70 1016.39 1017.06 1017.70 1018.31 1018.90 1019.47 1020.02 1020.54 1021.03 1021.49 1021.92 1022.31 1022.67 1023.01 1023.32 1023.62
1010.50 1010.40 1010.27 1010.08 1009.85 1009.60 1009.37 1009.21 1009.13 1009.16 1009.26 1009.42 1009.61 1009.78 1009.93 1010.05 1010.16 1010.29 1010.48 1010.74 1011.11 1011.59 1012.16 1012.82 1013.51 1014.23 1014.94 1015.63 1016.30 1016.94 1017.57 1018.19 1018.81 1019.42 1020.01 1020.58 1021.12 1021.62 1022.08 1022.50 1022.89 1023.24 1023.56
1010.68 1010.60 1010.47 1010.28 1010.03 1009.74 1009.46 1009.22 1009.07 1009.01 1009.03 1009.11 1009.21 1009.32 1009.41 1009.48 1009.56 1009.66 1009.84 1010.10 1010.47 1010.96 1011.54 1012.20 1012.90 1013.62 1014.33 1015.03 1015.70 1016.36 1017.01 1017.66 1018.32 1018.98 1019.63 1020.26 1020.86 1021.41 1021.91 1022.36 1022.77 1023.13 1023.46
1010.92 1010.88 1010.78 1010.59 1010.31 1009.99 1009.65 1009.33 1009.09 1008.93 1008.85 1008.83 1008.84 1008.87 1008.91 1008.94 1009.00 1009.11 1009.29 1009.57 1009.97 1010.48 1011.09 1011.76 1012.48 1013.21 1013.93 1014.63 1015.32 1016.00 1016.67 1017.36 1018.05 1018.75 1019.43 1020.09 1020.71 1021.28 1021.79 1022.24 1022.65 1023.02 1023.35
1011.19 1011.19 1011.11 1010.94 1010.65 1010.29 1009.89 1009.51 1009.17 1008.90 1008.71 1008.59 1008.52 1008.48 1008.46 1008.48 1008.53 1008.66 1008.87 1009.19 1009.63 1010.17 1010.81 1011.52 1012.25 1013.00 1013.74 1014.46 1015.16 1015.87 1016.57 1017.28 1018.00 1018.71 1019.41 1020.07 1020.68 1021.24 1021.73 1022.17 1022.56 1022.91 1023.22
1011.42 1011.47 1011.44 1011.28 1011.00 1010.62 1010.17 1009.72 1009.30 1008.95 1008.66 1008.45 1008.30 1008.20 1008.15 1008.15 1008.22 1008.37 1008.62 1008.98 1009.47 1010.05 1010.73 1011.46 1012.22 1012.99 1013.75 1014.49 1015.22 1015.94 1016.67 1017.39 1018.12 1018.84 1019.52 1020.17 1020.75 1021.27 1021.73 1022.13 1022.49 1022.81 1023.11
1011.61 1011.72 1011.72 1011.59 1011.33 1010.94 1010.48 1009.99 1009.52 1009.10 1008.75 1008.47 1008.26 1008.12 1008.04 1008.03 1008.11 1008.29 1008.57 1008.98 1009.50 1010.12 1010.82 1011.58 1012.36 1013.15 1013.92 1014.69 1015.44 1016.18 1016.92 1017.66 1018.39 1019.09 1019.75 1020.36 1020.90 1021.38 1021.78 1022.14 1022.45 1022.74 1023.02
1011.77 1011.92 1011.96 1011.87 1011.63 1011.27 1010.82 1010.33 1009.85 1009.41 1009.02 1008.71 1008.47 1008.30 1008.21 1008.20 1008.29 1008.48 1008.78 1009.21 1009.75 1010.38 1011.10 1011.86 1012.65 1013.45 1014.23 1015.01 1015.78 1016.53 1017.29 1018.03 1018.74 1019.43 1020.06 1020.62 1021.11 1021.53 1021.88 1022.18 1022.45 1022.70 1022.93
1011.94 1012.11 1012.19 1012.14 1011.95 1011.63 1011.22 1010.77 1010.32 1009.89 1009.52 1009.21 1008.96 1008.79 1008.69 1008.68 1008.76 1008.95 1009.25 1009.67 1010.21 1010.83 1011.53 1012.29 1013.07 1013.86 1014.65 1015.43 1016.21 1016.97 1017.72 1018.46 1019.16 1019.82 1020.41 1020.92 1021.35 1021.71 1022.00 1022.24 1022.45 1022.65 1022.84
1012.14 1012.34 1012.45 1012.44 1012.29 1012.04 1011.70 1011.31 1010.92 1010.55 1010.22 1009.94 1009.72 1009.56 1009.46 1009.44 1009.51 1009.69 1009.97 1010.36 1010.86 1011.46 1012.13 1012.85 1013.61 1014.38 1015.16 1015.94 1016.71 1017.47 1018.21 1018.93 1019.61 1020.23 1020.77 1021.23 1021.60 1021.89 1022.11 1022.29 1022.43 1022.57 1022.71
1012.42 1012.64 1012.77 1012.78 1012.69 1012.50 1012.23 1011.94 1011.63 1011.34 1011.08 1010.86 1010.68 1010.55 1010.46 1010.44 1010.50 1010.64 1010.89 1011.24 1011.69 1012.24 1012.86 1013.54 1014.26 1015.00 1015.76 1016.52 1017.27 1018.01 1018.74 1019.42 1020.06 1020.63 1021.12 1021.51 1021.82 1022.04 1022.19 1022.29 1022.37 1022.44 1022.50
1012.79 1013.01 1013.15 1013.19 1013.14 1013.00 1012.82 1012.60 1012.39 1012.19 1012.02 1011.87 1011.75 1011.66 1011.60 1011.58 1011.63 1011.75 1011.96 1012.26 1012.66 1013.15 1013.72 1014.35 1015.02 1015.73 1016.45 1017.17 1017.89 1018.60 1019.28 1019.91 1020.49 1021.00 1021.42 1021.74 1021.97 1022.11 1022.19 1022.22 1022.22 1022.21 1022.20
1013.24 1013.47 1013.61 1013.66 1013.63 1013.54 1013.41 1013.27 1013.14 1013.03 1012.94 1012.88 1012.82 1012.78 1012.76 1012.77 1012.81 1012.92 1013.10 1013.37 1013.72 1014.16 1014.67 1015.25 1015.87 1016.53 1017.20 1017.87 1018.54 1019.19 1019.81 1020.37 1020.88 1021.30 1021.64 1021.88 1022.02 1022.09 1022.08 1022.03 1021.96 1021.88 1021.80
1013.75 1013.99 1014.13 1014.17 1014.15 1014.07 1013.98 1013.89 1013.83 1013.80 1013.78 1013.79 1013.81 1013.83 1013.86 1013.90 1013.98 1014.09 1014.26 1014.51 1014.83 1015.23 1015.69 1016.22 1016.79 1017.38 1017.99 1018.60 1019.19 1019.76 1020.29 1020.77 1021.17 1021.50 1021.75 1021.89 1021.96 1021.94 1021.86 1021.74 1021.60 1021.46 1021.31
1014.30 1014.54 1014.67 1014.70 1014.66 1014.59 1014.51 1014.45 1014.43 1014.45 1014.51 1014.58 1014.67 1014.76 1014.86 1014.95 1015.07 1015.21 1015.40 1015.64 1015.94 1016.31 1016.73 1017.20 1017.71 1018.24 1018.77 1019.29 1019.79 1020.26 1020.69 1021.06 1021.36 1021.58 1021.73 1021.78 1021.77 1021.68 1021.54 1021.36 1021.17 1020.97 1020.78
1014.85 1015.10 1015.21 1015.23 1015.17 1015.08 1015.00 1014.96 1014.96 1015.02 1015.12 1015.26 1015.41 1015.57 1015.73 1015.90 1016.07 1016.25 1016.47 1016.72 1017.02 1017.36 1017.74 1018.16 1018.60 1019.04 1019.48 1019.91 1020.30 1020.66 1020.97 1021.23 1021.42 1021.54 1021.59 1021.57 1021.48 1021.34 1021.15 1020.94 1020.72 1020.50 1020.28
1015.35 1015.61 1015.72 1015.72 1015.65 1015.55 1015.47 1015.43 1015.45 1015.53 1015.68 1015.86 1016.08 1016.30 1016.53 1016.76 1016.99 1017.22 1017.47 1017.74 1018.03 1018.35 1018.69 1019.04 1019.40 1019.76 1020.10 1020.41 1020.70 1020.94 1021.14 1021.28 1021.37 1021.40 1021.37 1021.29 1021.15 1020.97 1020.76 1020.54 1020.31 1020.08 1019.86
1015.77 1016.04 1016.16 1016.17 1016.10 1016.01 1015.93 1015.90 1015.94 1016.05 1016.22 1016.45 1016.72 1017.00 1017.29 1017.58 1017.86 1018.13 1018.40 1018.68 1018.96 1019.24 1019.53 1019.81 1020.09 1020.35 1020.58 1020.79 1020.96 1021.10 1021.19 1021.24 1021.25 1021.21 1021.12 1021.00 1020.83 1020.65 1020.44 1020.22 1020.00 1019.78 1019.57
1016.07 1016.36 1016.50 1016.54 1016.50 1016.44 1016.39 1016.39 1016.46 1016.60 1016.81 1017.07 1017.38 1017.70 1018.04 1018.37 1018.68 1018.98 1019.27 1019.53 1019.79 1020.03 1020.25 1020.46 1020.64 1020.80 1020.94 1021.04 1021.12 1021.16 1021.17 1021.15 1021.10 1021.01 1020.90 1020.76 1020.59 1020.41 1020.22 1020.02 1019.82 1019.62 1019.41
1016.21 1016.53 1016.73 1016.82 1016.84 1016.84 1016.85 1016.90 1017.02 1017.19 1017.44 1017.73 1018.07 1018.42 1018.78 1019.13 1019.46 1019.77 1020.05 1020.29 1020.50 1020.69 1020.84 1020.97 1021.07 1021.14 1021.18 1021.21 1021.20 1021.18 1021.13 1021.06 1020.98 1020.87 1020.75 1020.61 1020.46 1020.29 1020.12 1019.95 1019.77 1019.58 1019.38
1016.18 1016.55 1016.81 1016.98 1017.10 1017.19 1017.28 1017.41 1017.58 1017.80 1018.08 1018.41 1018.76 1019.13 1019.50 1019.85 1020.18 1020.47 1020.72 1020.94 1021.10 1021.23 1021.32 1021.37 1021.39 1021.39 1021.36 1021.32 1021.26 1021.19 1021.11 1021.02 1020.92 1020.81 1020.70 1020.57 1020.44 1020.30 1020.15 1019.99 1019.82 1019.63 1019.42
1016.01 1016.43 1016.77 1017.04 1017.26 1017.46 1017.65 1017.86 1018.11 1018.39 1018.70 1019.04 1019.41 1019.78 1020.14 1020.49 1020.80 1021.07 1021.29 1021.46 1021.58 1021.65 1021.68 1021.68 1021.64 1021.58 1021.51 1021.42 1021.33 1021.23 1021.14 1021.04 1020.95 1020.85 1020.75 1020.64 1020.52 1020.39 1020.25 1020.10 1019.92 1019.72 1019.48
1015.73 1016.20 1016.62 1016.99 1017.32 1017.63 1017.93 1018.23 1018.55 1018.88 1019.22 1019.58 1019.95 1020.32 1020.67 1020.99 1021.28 1021.52 1021.72 1021.86 1021.94 1021.98 1021.97 1021.93 1021.85 1021.76 1021.66 1021.55 1021.44 1021.34 1021.24 1021.15 1021.05 1020.96 1020.87 1020.76 1020.65 1020.52 1020.37 1020.20 1020.00 1019.76 1019.48
Thickness
5663 5666 5669 5671 5673 5676 5678 5680 5682 5684 5684 5681 5679 5677 5676 5676 5673 5672 5670 5666 5663 5660 5655 5651 5646 5640 5636 5631 5625 5618 5612 5607 5603 5598 5593 5591 5589 5587 5585 5583 5580 5577 5574
5656 5660 5662 5665 5667 5671 5673 5675 5677 5680 5681 5681 5681 5680 5678 5676 5675 5672 5668 5665 5661 5658 5653 5649 5644 5638 5633 5626 5621 5616 5609 5602 5599 5595 5589 5585 5581 5579 5577 5575 5572 5569 5566
5648 5653 5656 5659 5661 5663 5666 5670 5671 5674 5676 5677 5677 5674 5672 5670 5667 5666 5665 5663 5659 5655 5651 5647 5642 5637 5632 5626 5620 5616 5610 5600 5592 5591 5589 5583 5581 5573 5568 5565 5563 5561 5558
5639 5644 5648 5652 5654 5657 5659 5662 5665 5667 5669 5669 5669 5668 5667 5667 5668 5667 5664 5661 5656 5652 5648 5644 5640 5635 5630 5625 5619 5613 5608 5600 5590 5583 5580 5579 5577 5569 5562 5557 5554 5552 5549
5631 5636 5640 5643 5647 5649 5651 5653 5656 5658 5660 5660 5662 5662 5663 5664 5663 5660 5658 5655 5652 5648 5644 5640 5635 5630 5626 5621 5615 5608 5603 5599 5591 5582 5575 5569 5564 5562 5559 5553 5546 5543 5540
5623 5627 5631 5635 5637 5639 5641 5643 5646 5648 5650 5651 5652 5653 5655 5655 5652 5651 5650 5648 5644 5641 5637 5633 5629 5625 5620 5615 5609 5603 5597 5592 5587 5580 5574 5568 5561 5555 5551 5546 5538 5533 5529
5612 5617 5620 5624 5626 5629 5631 5633 5635 5638 5640 5641 5642 5643 5645 5645 5645 5644 5642 5639 5636 5633 5630 5626 5621 5617 5612 5607 5601 5594 5588 5583 5578 5572 5566 5560 5555 5550 5543 5536 5527 5520 5516
5604 5607 5610 5612 5615 5618 5620 5622 5624 5626 5628 5629 5630 5631 5632 5633 5633 5632 5631 5630 5629 5626 5622 5616 5611 5606 5601 5595 5589 5583 5577 5572 5566 5561 5556 5549 5543 5539 5534 5527 5517 5510 5504
5597 5599 5600 5602 5604 5607 5609 5610 5612 5614 5615 5616 5616 5617 5617 5617 5618 5618 5616 5615 5613 5611 5607 5603 5598 5593 5588 5582 5576 5570 5565 5559 5554 5548 5543 5537 5531 5526 5522 5516 5510 5502 5495
5589 5590 5591 5592 5593 5595 5596 5598 5599 5600 5601 5600 5600 5601 5600 5600 5600 5600 5599 5597 5595 5593 5590 5586 5583 5579 5574 5569 5563 5557 5552 5546 5540 5535 5530 5525 5519 5513 5508 5503 5497 5491 5485
5578 5578 5579 5580 5581 5582 5583 5584 5584 5585 5584 5583 5583 5581 5580 5579 5579 5579 5578 5577 5576 5575 5572 5570 5567 5564 5559 5555 5550 5544 5539 5533 5527 5522 5517 5511 5507 5502 5495 5489 5483 5477 5471
5568 5567 5567 5567 5567 5568 5568 5567 5567 5566 5565 5563 5561 5559 5557 5556 5556 5556 5556 5556 5556 5556 5556 5554 5551 5548 5544 5541 5537 5531 5526 5520 5515 5509 5504 5497 5493 5488 5482 5476 5470 5464 5458
5559 5557 5555 5554 5554 5553 5551 5549 5547 5546 5544 5541 5537 5534 5533 5532 5532 5532 5534 5536 5537 5538 5538 5537 5535 5532 5529 5526 5522 5517 5512 5507 5502 5496 5491 5485 5480 5475 5469 5463 5457 5451 5446
5548 5545 5543 5541 5540 5538 5536 5533 5530 5527 5524 5520 5516 5512 5510 5510 5510 5511 5514 5516 5519 5520 5521 5520 5519 5517 5514 5511 5507 5503 5498 5492 5487 5483 5478 5473 5469 5463 5457 5451 5444 5438 5432
5540 5536 5533 5530 5527 5525 5522 5519 5515 5511 5507 5502 5497 5493 5491 5491 5492 5493 5495 5498 5501 5503 5505 5504 5503 5501 5499 5497 5493 5489 5484 5479 5474 5470 5465 5462 5458 5452 5447 5441 5433 5426 5419
5530 5527 5524 5521 5517 5514 5510 5506 5502 5498 5493 5488 5482 5478 5476 5476 5475 5476 5479 5482 5484 5487 5489 5489 5490 5489 5487 5484 5481 5477 5472 5467 5463 5458 5454 5450 5445 5440 5435 5429 5423 5416 5408
5522 5519 5515 5511 5508 5504 5500 5495 5491 5486 5482 5477 5471 5467 5465 5464 5464 5465 5466 5468 5470 5473 5475 5476 5477 5476 5474 5472 5469 5466 5461 5456 5452 5447 5443 5438 5432 5426 5420 5415 5409 5401 5393
5514 5511 5508 5505 5501 5497 5493 5488 5483 5478 5474 5469 5464 5460 5458 5456 5455 5456 5457 5458 5460 5462 5463 5464 5464 5464 5462 5461 5459 5455 5450 5446 5441 5436 5430 5424 5419 5414 5410 5404 5396 5388 5379
5509 5505 5502 5499 5496 5492 5487 5483 5477 5472 5467 5463 5459 5456 5454 5452 5451 5450 5451 5451 5453 5453 5454 5454 5453 5453 5451 5451 5449 5445 5441 5435 5429 5425 5419 5414 5408 5404 5400 5394 5385 5377 5368
5503 5500 5497 5494 5490 5486 5482 5477 5472 5467 5462 5458 5455 5452 5451 5449 5448 5447 5446 5446 5446 5446 5446 5445 5444 5442 5441 5442 5440 5436 5430 5424 5419 5414 5408 5403 5398 5394 5389 5381 5373 5364 5355
5497 5494 5491 5487 5484 5481 5477 5472 5467 5462 5459 5455 5452 5450 5448 5446 5445 5443 5442 5441 5440 5439 5437 5435 5434 5433 5433 5432 5430 5426 5419 5414 5408 5403 5397 5391 5387 5382 5376 5369 5359 5350 5344
5492 5489 5485 5481 5478 5476 5473 5467 5462 5458 5456 5453 5450 5448 5445 5444 5442 5440 5438 5436 5435 5432 5429 5427 5425 5423 5422 5421 5419 5415 5411 5406 5399 5393 5387 5381 5377 5371 5363 5353 5345 5338 5329
5488 5484 5481 5477 5473 5470 5468 5464 5459 5456 5453 5450 5447 5444 5441 5439 5437 5435 5433 5430 5428 5426 5422 5420 5416 5413 5411 5409 5407 5404 5400 5396 5389 5383 5377 5371 5364 5356 5346 5337 5331 5322 5311
5484 5480 5477 5472 5468 5465 5463 5460 5456 5454 5451 5446 5443 5440 5437 5433 5431 5429 5427 5424 5421 5418 5416 5412 5408 5404 5401 5399 5396 5392 5388 5384 5378 5370 5364 5357 5348 5339 5331 5323 5315 5307 5300
5481 5477 5473 5469 5465 5461 5459 5456 5453 5450 5447 5442 5438 5435 5431 5428 5424 5422 5419 5416 5414 5412 5408 5404 5400 5396 5392 5391 5390 5384 5379 5373 5367 5359 5349 5341 5332 5324 5317 5311 5304 5298 5292
5478 5473 5470 5466 5461 5458 5455 5452 5450 5447 5443 5438 5433 5428 5424 5421 5418 5415 5412 5412 5409 5406 5403 5399 5395 5391 5388 5385 5380 5375 5369 5362 5356 5345 5334 5325 5317 5310 5305 5300 5295 5290 5285